Location: Newark
(52.3500°N, 175.9667°E)
Time: 23:15:03
(UTC+00:00)

Vanguard 1 - Pass Details

Date: 20 April 2021
Orbit: 649 x 3834 km, 34.2° (Epoch: 04 May)

Event Time Altitude Azimuth Distance (km) Brightness Sun altitude
Rises 05:37:16 0° 261° (W) 6,738 16.1 14.9°
Reaches altitude 10° 05:41:34 10° 255° (WSW) 6,062 16.0 14.3°
Maximum altitude 06:00:11 44° 193° (SSW) 4,676 13.7 11.4°
Drops below altitude 10° 06:20:31 10° 131° (SE) 6,551 13.8 8.3°
Sets 06:25:26 0° 125° (SE) 7,297 13.9 7.6°
